Вернуться в каталог

STARLINK-2420

АктивенСвязьVLEO
NORAD 47831·PAYLOAD·🇺🇸 United States

Запущен Mar 11, 2021 с Cape Canaveral Space Force Station

Loading…

Ближайшие Пролёты (ближайшие 24 часа)

TLE

СвежийSource: CelesTrak SupGP

Эпоха: Sep 15, 2026, 01:45 UTC

1 47831C 21018AW  26258.07340278 -.00005352  00000+0 -17209-3 0  2585
2 47831  53.1578  81.3488 0001162  85.3850 254.1817 15.31706906    12

Отслеживайте STARLINK-2420 в реальном времени с AllMySat

Download on the App Store